User: anonymous
Location: Hamburg
(53.5500°N, 10.0000°E)
Time: 05:38:55
(UTC+02:00)
Language:

Iridium 10 - Orbit

View from above orbital plane
View from above orbital plane
View from above satellite
View from above satellite

Ground track
Ground track

The orbit data is extracted from the following two-line orbital elements,

1 24839U 97030D   14260.39728964  .00000259  00000-0  85532-4 0  9999
2 24839 086.3954 049.6730 0002193 111.3234 278.1126 14.34221602903084
Epoch (UTC): 17 September 2014 09:32:05
Eccentricity: 0.0002193
inclination: 86.3954°
perigee height: 776 km
apogee height: 779 km
right ascension of ascending node: 49.6730°
argument of perigee: 111.3234°
revolutions per day: 14.34221602
mean anomaly at epoch: 278.1126°
orbit number at epoch: 90308

The dashed part of the orbit path shows where the satellite is in the earth's shadow,  

DLR